RH
72 74 78 80 83 83 84 83 77 74 72 69 67 66 65 63 61 60 59 60 60 59 59 59 58 59 59 59 57 55 54 55 56 55 55 53 51 49 45 43 43 44 44 43 38 33 32 33 34 36 38 39 39 39 39 39 39 40 41 43 45 45 45 44 44 44 44 43 41 39 37 36 38 41 41 38 37 37 35 33 33 32 36 42 46
70 74 77 77 80 81 82 82 75 71 70 68 67 65 64 62 59 59 58 59 60 59 60 60 59 60 60 59 57 57 57 57 58 57 55 54 52 49 46 44 43 44 44 43 39 35 34 34 34 35 37 38 40 40 40 40 40 41 43 45 46 46 46 45 45 44 43 42 39 39 40 38 40 41 38 36 36 38 37 34 35 38 44 49 49
67 73 77 76 78 79 81 81 76 71 68 66 66 65 63 62 59 58 57 57 57 58 59 59 60 60 60 60 59 60 61 60 59 59 57 55 52 49 46 44 44 44 43 42 41 38 36 35 34 35 36 38 40 40 41 42 42 43 44 46 47 47 47 46 46 45 43 41 41 48 52 49 48 42 36 36 35 38 40 40 41 44 49 49 46
57 64 71 75 76 79 81 81 78 73 69 66 65 64 63 61 59 57 56 55 55 56 57 58 59 60 60 60 61 61 61 60 60 59 57 54 52 50 47 45 44 43 43 42 41 40 38 37 35 36 37 38 40 41 42 43 44 45 46 47 47 48 48 47 47 46 45 44 47 56 57 57 60 47 38 39 37 36 38 40 42 42 43 43 43
48 53 60 68 73 77 79 78 78 75 72 68 64 63 62 60 58 57 56 54 54 55 56 57 59 60 61 60 61 62 61 61 60 58 56 54 52 50 48 46 45 44 43 42 41 41 40 38 37 36 37 38 40 42 43 44 46 46 46 47 48 48 48 48 47 46 46 45 47 53 54 64 70 51 39 42 39 36 36 36 38 37 38 36 37
42 46 50 59 64 70 75 76 76 75 73 71 66 63 61 60 59 57 57 55 54 54 54 56 58 59 60 59 60 61 60 59 59 57 55 53 52 50 48 45 45 44 43 43 41 41 40 39 38 38 38 39 40 43 44 46 47 47 48 48 48 49 48 48 47 46 46 45 44 45 46 56 60 48 44 47 42 38 36 36 36 35 36 35 33
41 44 45 51 55 61 68 72 75 73 71 71 69 67 63 61 60 58 58 57 56 55 54 56 57 58 59 58 59 59 58 58 56 56 54 52 51 48 47 45 45 45 43 43 42 41 41 39 38 38 38 39 41 43 45 46 47 47 49 48 48 49 49 49 48 46 45 43 41 41 39 42 44 44 47 55 56 48 39 36 36 34 34 35 33
40 43 44 47 49 53 59 64 69 69 68 69 68 69 66 64 63 61 60 59 58 57 56 56 56 57 58 58 58 58 58 57 55 54 52 51 49 47 47 46 45 44 42 40 40 40 40 39 38 38 39 41 42 44 44 45 47 48 50 50 49 50 49 49 48 48 46 41 38 37 37 38 40 42 43 50 59 56 45 38 35 33 33 34 33
40 41 43 46 45 46 49 53 60 64 65 66 65 66 67 66 65 63 62 60 60 58 57 57 56 56 57 57 58 57 56 55 52 51 49 49 48 47 46 45 43 41 38 37 37 38 38 38 38 39 40 42 43 44 44 45 47 48 50 50 50 49 49 49 49 48 47 44 41 38 37 38 38 41 40 39 45 50 50 45 37 33 33 32 31
43 42 42 44 43 42 43 45 50 57 61 62 62 62 64 65 65 64 63 61 60 59 57 57 56 56 56 56 56 55 53 52 49 48 46 45 45 44 44 42 40 37 35 35 35 36 37 37 39 39 41 43 44 44 45 46 48 48 49 50 50 50 49 50 49 48 48 46 45 42 40 39 36 36 36 35 36 40 45 45 37 34 33 31 30
47 46 44 43 41 39 41 43 44 49 55 58 59 59 59 61 63 63 62 61 60 59 57 55 55 55 55 54 53 53 51 49 48 46 44 42 41 41 40 39 38 35 32 33 34 35 36 37 39 40 42 43 44 45 45 46 48 48 50 51 51 52 52 51 49 47 48 47 45 44 42 41 40 39 37 35 34 34 38 41 36 32 32 31 30
51 51 49 48 46 44 44 43 43 45 50 54 55 55 56 56 59 61 61 60 59 58 57 55 54 54 54 53 52 51 50 49 47 46 44 42 41 40 39 38 37 34 32 33 34 35 37 38 40 42 43 44 44 44 45 46 48 48 49 50 49 50 52 54 52 48 47 46 44 43 42 43 43 44 42 38 34 31 34 37 33 30 32 31 30
59 58 56 55 54 54 52 47 46 46 46 50 51 52 53 53 55 57 58 58 58 58 57 55 54 53 53 52 51 50 50 49 48 46 45 43 41 40 39 38 36 34 33 33 33 35 37 39 41 42 43 43 43 44 45 47 48 48 49 49 47 46 49 54 54 51 47 45 44 42 42 43 42 43 43 40 36 32 32 34 34 32 33 34 33
62 65 64 64 62 59 55 49 47 47 45 47 49 50 51 51 52 53 54 55 55 56 56 55 54 52 52 51 50 50 49 48 48 46 45 43 41 40 38 37 35 34 32 32 32 34 37 39 40 42 41 42 43 44 46 48 48 49 50 50 47 44 47 53 54 51 47 44 43 42 41 41 41 41 41 40 38 35 34 34 35 35 34 34 34
65 72 71 71 70 61 55 50 47 47 46 46 47 49 50 50 50 50 51 52 53 53 54 54 53 51 50 49 49 48 47 47 46 45 45 43 42 40 37 36 34 32 31 32 33 35 37 39 40 41 41 42 44 46 47 49 49 51 52 50 47 44 48 52 51 47 45 43 42 41 40 39 40 40 39 39 39 38 38 37 38 42 46 47 41
68 75 77 79 75 64 57 54 50 48 47 47 46 46 48 48 49 48 49 49 50 51 51 52 52 51 51 49 48 47 46 46 46 45 45 43 42 40 38 36 35 34 33 34 35 36 37 39 40 40 42 43 46 47 48 50 50 52 53 50 47 46 49 49 47 45 43 42 40 39 39 39 40 39 38 39 39 39 41 40 39 41 53 65 58
63 68 74 80 80 74 67 60 56 52 49 48 46 46 46 47 48 48 48 49 49 49 49 49 51 51 51 50 48 47 46 45 45 45 45 44 43 41 39 38 37 36 37 36 37 38 38 39 40 41 43 46 48 48 49 50 51 53 53 50 47 47 48 46 44 43 40 39 38 38 39 39 39 39 38 39 39 40 41 39 38 35 44 63 68
58 60 63 70 75 77 75 68 63 59 55 52 49 48 48 47 48 47 47 48 47 47 48 48 49 50 50 50 49 48 47 46 46 45 46 46 45 44 42 41 40 39 39 39 39 39 40 41 42 44 45 47 48 49 50 51 52 54 53 50 48 46 46 44 41 41 39 39 39 39 39 39 39 38 38 39 40 41 41 39 42 40 39 49 58
59 58 58 62 65 71 75 73 70 65 61 58 54 52 50 48 48 47 47 47 46 47 48 48 49 49 48 49 48 49 48 48 48 47 47 47 45 45 44 43 42 41 41 41 41 42 43 44 45 46 47 48 49 50 51 53 53 54 53 49 47 45 44 42 41 41 41 40 39 39 39 38 38 37 37 39 40 41 43 43 46 45 43 43 43
62 60 58 58 59 64 68 70 71 69 66 64 61 58 55 52 51 49 48 48 47 48 47 48 49 49 49 49 48 49 49 49 49 48 48 47 46 45 44 44 43 42 43 44 44 45 46 46 46 47 48 49 50 51 52 54 54 53 51 48 46 45 44 43 42 41 41 41 39 38 38 38 37 37 38 40 41 41 44 46 48 48 46 45 40
64 63 60 56 55 57 60 63 64 66 68 68 67 65 61 58 56 54 53 51 50 49 48 49 50 51 52 51 50 49 50 50 50 50 49 48 47 46 45 44 44 45 46 46 47 47 47 46 46 47 48 48 49 51 53 55 54 53 50 48 46 45 44 43 42 42 41 40 40 38 38 37 37 38 38 40 41 42 46 48 48 48 46 46 44
65 66 64 59 56 55 57 59 59 61 64 67 69 70 68 66 63 61 59 56 54 53 52 52 53 54 54 53 53 52 52 52 52 51 51 49 48 47 46 47 47 48 48 48 49 48 47 47 47 46 47 47 48 50 53 54 54 52 49 47 46 45 44 43 42 42 41 40 39 38 38 37 37 38 39 40 41 43 48 49 47 48 47 46 47
64 66 67 64 60 58 59 59 59 60 61 62 65 67 69 69 68 67 64 61 60 58 57 57 57 57 57 57 56 55 54 54 53 52 52 50 49 49 48 49 49 49 50 49 48 47 46 46 46 46 46 47 48 50 53 54 52 51 48 46 46 45 44 44 43 44 43 41 40 38 38 38 38 39 39 40 43 46 48 49 47 47 47 47 48
64 65 68 67 63 62 62 61 62 62 61 62 62 63 65 66 67 68 67 65 64 62 61 61 60 60 60 59 58 57 55 55 54 54 52 51 51 50 50 50 50 50 49 48 47 46 45 46 46 47 47 47 49 50 51 52 50 48 47 45 45 45 45 46 45 46 45 42 40 39 39 39 38 39 41 42 46 48 48 48 48 47 47 48 48
64 66 68 69 67 65 63 63 64 64 63 63 62 62 62 62 63 64 65 66 65 64 63 62 62 62 61 60 58 57 55 55 54 54 53 53 52 51 51 51 50 49 47 45 44 42 43 44 44 46 47 47 48 48 49 49 47 46 46 45 46 46 47 48 48 47 46 44 42 41 40 40 40 40 43 46 48 49 49 48 49 48 48 49 49
67 68 69 71 69 67 65 65 67 66 65 65 64 63 62 61 61 60 60 62 63 63 63 61 61 61 60 59 57 56 55 54 54 54 53 53 53 52 51 49 47 45 42 39 38 38 39 41 43 46 47 47 47 47 47 46 46 46 47 47 48 49 49 49 49 48 47 45 44 43 43 42 43 44 46 49 50 50 50 49 49 49 49 49 51
68 70 73 75 72 67 65 68 70 69 68 66 66 65 64 64 63 61 59 57 58 60 60 59 58 58 58 57 56 55 54 53 52 52 52 52 51 50 48 45 41 38 36 35 34 35 38 41 45 47 48 49 49 49 49 48 49 49 50 51 52 52 52 51 50 48 47 46 45 45 46 45 46 48 49 50 51 51 51 51 50 51 50 50 53
68 72 75 75 71 67 67 70 72 70 68 68 68 67 66 65 65 65 62 57 55 55 56 56 55 54 55 55 54 54 53 52 50 49 49 48 47 45 41 38 35 33 33 33 33 36 42 47 50 51 52 53 53 53 53 53 54 54 55 55 55 54 53 51 50 48 48 48 48 47 48 49 49 50 51 51 53 53 53 52 52 51 51 53 54
69 73 72 68 65 65 67 70 71 70 68 69 69 68 67 67 67 68 66 63 58 54 53 54 53 52 52 52 53 53 51 51 49 47 46 44 41 38 35 33 33 33 34 35 36 41 46 51 56 57 58 58 58 58 58 58 58 58 57 56 56 55 55 53 52 52 51 51 52 51 51 51 52 52 53 53 54 54 54 54 53 53 53 54 55
70 73 67 62 62 63 65 66 67 69 70 70 70 69 69 69 69 70 71 68 63 58 54 53 53 52 52 51 52 52 51 50 48 46 44 41 38 35 33 33 34 35 37 40 43 46 50 53 57 59 61 62 61 61 61 60 59 58 57 57 57 57 57 56 55 55 56 55 55 56 55 55 56 56 56 56 56 56 56 55 55 54 53 54 56
70 71 64 61 63 63 62 64 67 69 69 69 71 72 73 73 72 72 73 73 69 63 57 53 52 51 51 52 51 50 50 49 47 46 43 41 38 36 35 37 39 42 44 45 47 50 52 54 55 57 59 60 61 61 60 60 60 59 58 59 61 61 59 60 60 59 60 60 59 59 59 59 59 59 59 59 58 58 57 56 55 54 54 54 55
69 70 64 63 64 62 61 66 70 68 67 70 74 75 75 74 73 73 74 76 75 70 62 55 52 51 51 52 51 50 50 48 48 47 44 42 41 41 42 45 48 49 50 51 52 53 54 55 55 56 58 59 60 61 61 67 73 75 70 64 63 65 64 63 64 63 62 62 61 61 61 61 61 60 60 60 60 59 58 58 57 56 57 57 57
69 68 64 65 63 59 61 68 69 66 68 73 74 74 75 74 76 78 79 80 81 78 71 62 56 54 53 53 52 51 51 50 50 49 48 47 48 49 51 53 53 55 56 57 59 59 58 59 59 61 63 63 64 64 69 78 84 87 88 79 69 68 69 67 66 65 65 63 62 62 61 61 61 61 62 62 62 62 61 60 61 60 61 61 61
67 65 64 62 57 56 63 67 66 68 73 74 72 75 78 80 82 84 84 86 86 83 78 70 62 58 56 55 55 54 54 53 53 53 53 54 55 57 58 58 59 61 62 64 65 65 65 65 65 67 70 71 71 70 74 84 86 86 93 92 81 73 70 68 66 65 65 64 63 63 63 63 63 63 63 64 64 64 64 64 65 65 66 66 66
64 63 60 56 55 60 65 65 68 74 75 73 74 79 83 85 87 88 88 90 90 87 82 74 66 62 60 59 58 57 57 57 57 57 59 60 61 64 65 65 65 65 66 68 69 71 72 71 71 75 78 80 79 75 76 86 91 90 93 96 93 87 81 76 74 72 70 70 69 68 68 67 67 67 66 66 66 66 67 68 68 69 70 71 73
62 58 55 56 60 63 62 67 75 77 73 74 78 82 87 90 92 92 92 91 91 89 84 76 68 64 62 62 61 61 61 61 62 63 64 66 67 69 69 69 69 70 71 73 75 76 76 76 76 78 81 82 80 76 78 89 97 96 95 95 96 96 94 90 88 85 81 80 78 77 76 74 73 74 72 72 73 74 75 76 77 78 78 79 81
58 55 57 61 61 57 62 73 78 74 73 77 82 86 92 96 95 95 94 92 92 89 84 77 70 66 64 64 65 65 64 65 67 68 69 71 71 72 72 72 73 76 78 79 79 80 80 79 77 75 76 77 75 73 77 90 97 95 93 93 90 91 94 96 95 92 88 86 84 83 83 83 83 83 82 84 88 92 93 92 91 91 90 90 90
58 59 62 63 59 58 69 78 75 73 76 81 86 92 96 98 98 97 95 93 92 89 84 79 73 68 67 67 68 68 68 69 71 72 73 75 75 75 76 75 75 78 81 81 81 81 79 76 73 71 71 72 71 70 72 82 93 93 89 88 85 84 90 95 97 97 94 93 95 94 92 92 92 90 91 96 100 100 100 100 99 99 98 98 98
55 63 66 63 60 64 73 76 75 78 81 84 90 96 98 99 99 97 96 94 92 88 85 82 77 73 71 71 72 72 72 73 75 77 77 78 78 79 79 79 79 80 82 83 82 81 78 74 71 69 69 68 68 69 65 68 81 90 89 89 91 92 95 97 98 99 98 97 98 99 98 98 98 97 98 101 101 100 100 101 100 100 100 100 99
58 69 68 63 63 67 73 76 80 83 83 85 93 97 98 100 99 98 97 95 92 90 87 84 81 78 76 75 75 75 76 77 79 81 81 82 83 84 84 84 84 85 86 86 83 80 76 73 69 67 67 65 63 63 58 55 68 84 89 92 99 100 99 99 99 99 99 98 98 98 97 97 99 101 100 100 100 100 100 100 99 100 100 99 97
63 69 66 64 64 66 70 77 83 84 84 88 95 99 100 100 99 98 97 96 95 94 90 86 83 82 81 81 80 80 81 82 83 84 86 87 87 87 87 88 88 89 89 87 84 80 76 72 69 66 66 65 61 59 54 48 58 80 90 95 101 102 99 100 101 100 100 99 99 99 97 95 97 101 101 100 100 100 100 100 100 100 100 98 97
61 63 65 69 68 64 68 78 85 85 85 91 97 100 101 100 99 99 97 98 99 96 92 90 88 87 87 87 86 86 86 87 88 89 90 91 91 91 90 90 90 90 89 86 83 80 76 73 72 70 68 66 62 59 54 48 58 83 98 100 100 101 100 100 99 99 101 100 99 98 95 91 92 98 101 101 100 100 100 100 100 100 100 100 100
60 65 71 74 69 64 69 82 87 85 86 92 97 101 101 99 99 100 99 99 100 98 97 95 93 93 93 93 93 92 91 92 93 93 93 93 94 95 93 92 91 89 88 87 84 81 79 79 79 76 73 70 64 61 58 53 56 74 93 102 101 98 100 101 100 100 100 99 98 98 95 92 94 99 102 101 100 100 100 100 100 99 99 99 99
62 70 76 73 67 68 78 87 87 83 86 91 96 101 101 99 99 100 99 100 100 99 100 99 98 99 99 98 99 98 97 98 97 96 97 97 96 97 96 94 92 89 89 89 87 85 85 86 84 82 77 72 67 65 62 58 53 54 68 90 103 102 99 99 100 100 100 99 99 98 96 96 99 101 101 100 100 100 99 100 100 100 100 101 100
66 73 76 71 68 77 87 87 82 81 87 91 95 100 101 100 100 100 100 100 100 100 101 101 101 102 101 101 102 101 101 101 99 98 99 97 97 97 97 95 94 92 91 91 90 89 89 88 87 85 80 74 72 69 62 56 52 49 50 67 88 98 101 102 100 99 99 100 100 100 99 100 100 101 100 100 100 100 100 101 100 100 101 100 98
71 76 76 71 74 83 88 84 81 85 89 91 94 100 101 101 102 101 100 100 100 100 100 101 101 102 102 101 102 101 101 102 101 100 99 97 96 96 96 96 96 94 92 91 91 92 92 92 90 86 81 78 77 73 62 52 51 52 49 49 58 69 81 93 100 101 100 100 99 99 99 100 100 100 100 100 100 100 100 100 100 99 98 95 92
75 79 76 73 76 83 85 85 87 89 90 92 95 99 101 101 102 102 101 100 100 100 100 100 101 102 102 102 101 101 101 100 100 100 100 99 98 96 95 95 94 94 95 94 93 94 95 94 92 88 84 83 80 76 67 55 51 51 49 46 48 50 55 67 79 88 95 99 101 101 101 100 100 99 99 99 98 97 96 95 93 89 84 79 74
79 80 76 74 78 83 85 89 91 91 92 94 96 97 100 100 99 99 101 100 99 100 100 100 102 102 101 101 101 100 100 99 98 98 97 96 96 94 93 91 88 88 91 93 95 96 93 91 90 86 85 86 84 76 65 54 49 49 47 48 50 49 48 50 53 59 67 75 82 86 86 84 83 83 83 81 78 76 75 73 70 66 62 60 59
82 81 77 77 80 84 87 90 92 93 94 96 96 96 99 98 95 95 100 100 99 100 100 100 102 102 100 100 100 99 99 97 95 95 94 94 93 91 90 88 85 85 85 85 87 87 84 83 84 82 81 83 80 70 56 48 49 51 50 50 51 51 53 54 54 56 59 62 65 68 68 68 68 69 69 69 67 66 65 65 65 65 65 66 66
85 82 77 77 80 85 89 91 93 95 96 98 98 95 95 96 94 93 97 100 100 100 100 101 102 102 102 101 101 100 99 98 97 97 97 96 96 94 92 90 88 86 84 83 85 84 79 77 76 72 69 69 66 57 49 53 66 74 72 70 71 74 77 77 75 78 81 80 80 81 80 79 79 79 80 80 79 79 80 80 80 79 78 77 75
86 81 78 79 82 86 89 91 94 97 98 100 99 92 90 95 96 94 96 100 100 100 100 100 102 102 102 102 102 101 101 101 100 100 99 99 98 96 96 97 96 92 87 87 93 96 94 90 84 77 71 70 68 61 57 67 87 98 96 94 94 94 95 94 92 94 98 98 97 98 98 97 95 96 96 95 92 92 93 92 90 87 85 83 81
Wind_Speed
16 20 25 29 30 31 31 31 32 33 35 37 38 39 42 42 42 43 43 44 44 43 42 41 40 39 38 40 41 40 39 37 36 35 34 34 32 31 30 28 27 26 25 23 22 23 22 22 22 21 21 20 20 19 18 17 16 15 13 12 11 11 11 11 11 10 9 8 8 8 8 8 6 3 2 3 4 3 1 3 7 8 8 8 6
10 13 21 26 28 30 31 31 33 35 37 39 41 42 43 43 45 46 45 44 45 45 45 44 43 42 41 42 42 41 40 39 38 37 36 35 33 32 31 29 28 28 27 25 24 24 23 23 23 23 22 22 21 20 18 18 17 16 15 14 13 12 12 11 11 9 5 3 2 5 6 3 1 2 3 5 5 4 3 5 8 9 10 9 7
10 12 16 23 28 29 31 32 35 38 39 41 43 43 43 44 46 47 46 45 46 46 46 45 45 45 43 42 42 41 40 40 39 38 37 36 35 34 32 31 31 30 29 27 26 25 24 24 24 24 23 23 22 21 20 20 19 18 16 15 14 13 12 11 11 10 6 2 1 2 2 2 2 2 4 5 7 6 6 8 10 10 11 9 7
14 13 14 19 25 28 31 33 35 36 36 39 41 42 43 45 46 46 46 46 47 47 47 46 44 43 42 41 41 40 39 40 39 38 38 38 37 35 35 34 33 31 31 29 28 27 26 25 25 24 24 23 23 22 22 22 21 20 18 17 15 14 13 12 12 11 9 6 2 1 1 1 1 1 2 3 4 5 7 9 9 9 9 7 6
15 15 14 15 19 26 31 33 34 35 37 40 42 43 44 45 46 46 46 46 47 47 47 46 42 40 38 35 33 34 33 35 37 38 39 39 39 39 37 35 34 33 32 31 30 29 28 27 26 25 24 24 23 22 22 22 21 20 19 18 17 16 15 13 13 12 11 10 7 4 1 1 2 1 1 1 2 4 5 6 7 7 6 5 4
14 14 14 13 18 24 28 31 32 34 39 42 43 44 44 44 44 45 45 46 47 47 47 46 43 42 40 35 32 32 30 33 39 41 41 42 41 40 38 36 36 35 34 33 32 31 30 28 27 26 25 24 24 22 22 22 22 21 20 19 19 17 16 15 14 12 11 11 12 11 8 4 3 3 2 1 1 3 3 3 3 3 2 2 3
12 13 12 13 17 20 23 30 33 36 41 42 41 42 43 42 43 45 46 46 47 47 47 46 45 43 43 42 40 38 36 37 42 43 42 43 42 40 39 38 37 36 36 35 34 33 31 30 29 28 27 25 24 23 23 23 22 22 21 20 19 17 18 18 17 15 13 12 14 15 13 10 7 5 3 1 0 2 4 4 2 1 0 0 1
10 12 12 13 16 19 24 31 37 41 43 39 38 41 44 45 45 46 46 46 46 46 46 47 47 45 45 43 42 42 42 42 42 42 41 42 42 41 41 40 39 38 37 36 35 34 33 31 30 29 28 27 25 25 24 23 22 21 21 20 19 19 19 20 19 18 16 15 14 14 13 11 10 9 8 6 3 1 3 3 2 2 3 3 2
9 11 12 13 16 23 30 34 38 41 39 38 40 43 43 44 44 44 45 45 44 45 46 48 48 47 46 44 42 42 43 41 39 40 40 40 41 42 42 41 40 39 38 37 36 35 34 33 31 30 30 28 27 26 24 23 22 22 22 21 21 20 20 20 21 21 20 18 17 16 13 11 11 10 10 10 7 4 4 4 4 4 3 4 4
9 10 11 12 18 25 29 30 32 35 37 38 40 40 40 41 41 42 44 45 44 44 46 47 48 46 45 45 43 42 41 39 36 36 38 39 40 42 42 42 42 40 39 38 37 36 35 34 33 32 32 30 28 27 25 24 23 23 22 22 21 20 20 21 21 21 21 20 19 18 16 14 10 9 10 12 10 8 6 5 5 4 4 5 5
7 8 9 10 16 21 22 24 28 31 33 34 35 37 38 40 41 43 44 45 44 44 45 47 48 47 46 46 46 44 41 39 36 36 37 39 40 41 43 43 42 41 40 39 38 37 36 35 34 33 32 31 29 28 27 26 24 23 22 22 21 21 20 21 21 21 21 21 21 21 19 17 14 11 13 15 13 10 6 5 7 6 6 8 7
6 7 7 7 10 13 16 23 27 27 28 31 35 37 37 38 40 41 41 43 43 44 45 47 48 48 47 47 47 46 43 41 40 40 40 41 42 42 41 41 41 41 41 41 41 39 38 37 35 35 33 32 30 29 27 26 25 24 24 23 22 21 21 21 22 22 22 22 22 22 20 19 18 15 14 16 16 14 10 7 7 5 5 6 7
6 6 7 6 7 8 13 19 22 23 28 33 35 35 35 37 38 39 41 43 44 44 45 46 48 49 49 48 48 46 44 43 43 42 42 42 43 42 41 42 42 43 43 43 43 42 40 39 37 37 35 33 31 29 28 27 27 26 25 25 23 22 22 22 23 23 23 23 22 22 20 19 18 16 15 15 16 15 12 9 7 5 5 6 7
7 7 7 6 6 7 10 15 18 23 28 31 32 34 34 35 36 39 41 43 43 44 45 46 47 49 49 49 48 46 45 44 44 43 42 42 42 42 43 44 44 46 46 46 45 43 42 40 39 38 36 34 32 31 30 29 28 28 27 26 24 23 23 23 23 23 23 23 22 21 21 19 17 16 16 17 16 15 13 11 8 4 5 7 7
8 7 7 7 7 8 10 12 15 20 24 25 28 31 32 34 36 39 41 42 43 44 44 46 47 48 48 48 47 46 45 45 44 43 42 42 42 42 43 44 45 47 47 46 44 43 41 40 39 38 36 34 33 32 31 30 29 29 28 26 25 23 23 24 24 24 24 24 23 22 20 19 18 17 17 18 18 17 15 14 11 6 3 5 5
10 9 8 8 9 10 10 11 12 15 17 20 25 28 31 34 36 38 40 40 41 42 44 45 46 46 46 46 46 45 44 43 43 43 42 43 43 43 43 44 44 45 45 44 43 42 41 40 39 38 36 35 34 32 32 31 30 30 29 27 25 25 25 25 25 25 25 24 22 21 20 19 18 18 18 17 17 16 15 15 14 12 7 2 2
12 11 10 10 10 12 14 13 13 13 14 18 22 26 29 31 32 33 35 35 36 40 43 44 44 43 44 45 45 45 44 45 45 44 44 43 43 42 42 42 42 42 42 42 41 41 40 39 38 37 36 35 34 33 32 32 32 31 31 29 27 26 26 26 26 26 25 23 22 21 20 19 18 18 18 17 16 15 15 15 15 15 12 6 2
15 15 14 13 14 17 19 20 18 16 15 16 19 21 24 27 28 29 31 32 35 37 39 40 40 41 42 43 44 45 45 45 45 44 43 42 42 41 41 41 41 41 40 39 38 38 38 37 37 36 36 35 34 33 33 33 33 33 32 30 28 28 28 28 27 26 25 24 23 22 21 20 20 19 19 17 16 15 15 15 14 15 14 12 9
16 16 16 14 17 21 24 24 25 23 20 18 17 18 20 23 26 27 29 31 32 33 34 36 37 39 40 41 42 43 43 43 42 41 41 41 42 42 41 41 40 39 39 38 38 38 37 36 36 36 35 35 34 34 34 34 34 34 32 30 29 29 29 29 28 27 26 25 24 23 23 22 21 21 20 18 17 16 16 15 15 15 15 15 15
15 15 15 14 17 23 26 26 27 25 23 21 19 17 17 19 21 25 27 28 29 30 32 34 36 37 37 37 39 40 40 41 40 40 40 41 41 41 41 40 39 38 38 38 37 37 36 36 36 35 35 34 34 35 35 35 35 34 33 32 31 31 30 30 29 27 26 25 25 25 24 24 23 22 21 19 19 18 17 16 16 16 16 15 16
15 14 14 14 18 25 29 29 30 28 26 24 20 18 17 17 18 20 23 25 27 29 31 33 34 35 35 36 37 38 39 39 38 39 39 39 40 40 40 39 38 38 38 37 36 36 35 35 35 34 34 34 35 35 35 36 36 35 34 33 32 32 31 30 29 28 27 26 26 26 26 25 25 23 22 21 20 19 18 17 16 16 17 16 16
15 15 15 14 19 26 29 31 33 32 32 31 27 24 21 19 18 18 20 23 25 27 28 30 31 32 34 35 35 36 36 37 37 37 38 38 38 38 38 38 37 37 37 36 35 34 33 33 33 33 33 33 35 35 36 37 37 36 35 33 33 32 31 31 29 29 28 27 27 27 27 26 26 24 23 22 21 20 19 18 18 18 18 18 17
14 15 14 15 21 26 29 32 33 33 34 35 34 31 27 24 21 19 20 22 23 24 25 27 28 30 32 32 32 33 34 35 36 36 37 37 37 37 37 37 37 37 36 35 34 33 32 32 32 32 32 33 34 35 36 37 37 37 36 34 33 32 32 31 30 29 29 29 29 28 28 27 26 25 24 23 22 21 20 20 20 20 20 20 19
16 15 14 17 22 25 27 29 30 32 33 34 35 34 32 29 25 23 22 22 22 23 23 25 27 28 29 29 30 31 32 33 34 35 36 36 36 36 36 36 36 35 34 33 32 31 31 31 31 31 32 33 34 35 36 37 37 37 36 35 33 32 32 31 30 30 30 30 30 29 29 28 27 26 25 24 22 22 21 21 21 21 21 21 21
16 16 15 17 19 21 24 26 27 29 32 34 34 35 34 32 29 26 25 24 23 22 23 24 25 26 27 28 29 30 31 33 34 35 35 35 36 36 35 35 35 34 33 32 31 30 30 30 31 32 32 33 34 35 36 36 36 35 35 34 33 32 31 31 30 30 30 30 31 30 30 29 28 27 26 25 24 23 23 22 22 23 22 22 22
15 16 15 15 15 18 24 27 26 27 30 32 34 34 34 33 32 29 27 26 24 23 23 23 24 26 27 28 29 30 32 33 34 34 34 34 34 35 34 34 33 32 32 31 30 30 30 30 31 31 32 33 33 34 35 35 35 34 33 32 31 31 30 30 30 30 30 30 30 30 30 29 29 28 27 26 25 24 24 24 24 24 24 23 23
14 14 13 14 15 18 24 26 26 27 29 31 33 34 34 34 33 33 30 27 26 24 24 24 25 26 28 29 30 32 33 33 33 33 33 33 33 33 33 33 32 31 31 30 30 29 29 30 31 31 31 32 33 33 33 33 33 32 31 31 30 29 30 30 30 30 30 30 29 29 29 29 29 28 27 26 25 25 25 26 26 25 25 25 24
14 12 13 15 16 17 21 24 26 29 32 33 33 33 34 34 34 34 32 29 27 26 25 25 26 27 29 31 32 32 32 31 32 32 32 33 33 32 32 31 31 30 30 30 29 29 29 29 30 30 30 31 32 32 32 32 31 31 30 30 30 29 29 29 30 30 29 28 28 28 28 28 27 27 26 25 25 25 26 26 26 26 26 26 25
15 14 14 16 17 16 19 23 26 30 33 34 33 33 34 35 35 35 34 32 29 27 27 27 27 29 31 31 31 30 30 31 31 32 32 32 32 32 31 31 30 30 29 29 29 29 29 29 29 29 29 30 30 31 31 31 30 30 30 29 29 29 29 29 29 29 28 27 27 27 26 26 26 25 25 25 25 25 26 26 26 26 27 27 27
13 13 14 16 16 17 21 25 26 28 31 33 33 33 34 35 35 35 35 34 32 29 28 28 30 32 32 31 30 30 30 31 32 32 32 32 32 32 31 31 30 30 29 29 28 28 29 29 29 29 29 29 29 29 29 29 29 29 29 28 28 28 28 29 29 28 27 26 26 26 25 24 24 24 24 25 25 25 26 26 26 27 28 28 28
12 11 13 15 15 16 21 24 25 28 31 32 33 33 34 35 35 35 35 35 33 30 29 30 32 33 32 31 30 30 31 32 32 32 32 33 32 32 31 31 30 29 29 28 28 28 28 28 28 29 28 28 29 28 27 27 27 27 28 27 27 27 28 28 28 27 27 26 26 26 25 24 24 25 25 25 26 26 27 27 28 28 29 29 29
13 11 13 14 13 15 20 22 24 29 32 32 33 35 35 36 37 37 37 36 34 31 30 32 33 33 31 30 30 31 31 32 32 32 33 32 32 31 31 30 29 29 28 28 28 28 27 27 27 27 27 28 28 27 26 25 24 23 25 27 27 27 27 27 27 26 26 26 26 26 25 26 26 26 26 26 27 27 28 28 28 29 29 30 31
14 12 13 13 13 17 21 23 26 30 32 32 34 36 37 38 39 39 38 36 35 33 31 31 32 31 30 30 30 31 31 32 32 32 32 31 31 31 31 30 30 29 28 28 27 27 26 26 26 26 27 27 27 27 25 24 22 21 22 25 27 27 27 27 26 26 26 26 26 26 26 27 27 27 27 28 28 29 29 29 29 30 30 31 32
13 11 12 13 17 22 24 26 30 31 31 34 36 37 39 40 40 39 38 36 35 35 34 32 31 30 29 29 30 30 31 32 31 31 31 31 31 31 30 30 29 29 28 28 27 27 26 26 26 26 27 27 27 27 25 23 22 22 21 22 24 26 26 25 25 25 25 25 26 26 27 27 27 28 28 29 29 30 30 30 30 30 31 32 32
13 12 13 17 22 25 28 31 31 30 33 37 39 39 40 41 40 39 38 36 34 35 35 33 31 30 28 28 29 30 31 31 30 30 30 30 30 30 29 29 29 29 29 29 28 27 27 26 27 27 27 28 27 27 26 23 21 21 20 21 22 23 24 24 24 24 25 25 25 26 26 26 27 27 28 29 29 30 30 30 31 31 33 33 34
12 14 17 21 24 28 32 32 29 31 36 38 39 39 39 41 40 38 37 36 34 33 33 32 30 29 28 28 30 30 30 29 28 29 29 29 29 28 29 29 29 29 28 28 27 27 27 27 27 27 28 28 27 27 26 22 20 19 20 20 20 20 20 22 23 23 24 25 25 26 26 26 26 27 28 28 28 29 29 30 32 33 34 35 36
16 22 23 25 29 34 35 30 30 35 37 35 36 37 37 38 38 37 36 35 32 31 31 31 30 29 28 28 29 29 28 28 28 28 29 28 28 28 28 28 28 28 28 28 28 27 27 27 27 27 29 29 28 28 26 21 19 19 20 21 22 19 17 18 19 21 23 25 26 27 27 27 27 27 28 27 25 25 27 29 30 31 32 33 35
21 27 25 27 33 35 32 30 33 38 37 36 37 37 34 33 32 33 33 32 30 30 31 29 29 29 27 26 27 28 28 27 28 29 29 28 28 27 28 28 28 28 27 27 28 27 27 27 27 28 29 29 29 29 27 23 19 19 20 22 23 22 20 19 19 20 23 24 25 25 26 26 27 28 27 25 23 24 26 27 28 29 31 33 33
27 25 22 27 33 32 31 32 33 35 36 38 38 36 33 31 30 31 30 27 27 29 30 29 28 27 25 25 25 26 27 27 28 28 28 28 27 27 27 27 27 27 26 26 26 26 26 27 28 28 28 28 28 28 28 25 21 19 20 20 21 21 20 21 21 22 23 25 25 25 26 26 26 27 26 25 24 25 27 28 28 28 29 31 31
30 24 23 28 30 29 31 32 29 31 36 37 36 33 31 29 29 29 26 24 27 29 30 29 27 24 22 23 24 25 26 27 27 27 26 26 26 25 26 26 26 25 25 24 25 26 27 27 27 27 27 27 27 27 28 26 22 19 19 19 19 20 20 20 20 22 23 24 25 26 28 27 26 25 26 26 26 27 28 29 30 30 31 31 31
29 28 29 31 29 29 31 30 27 29 33 33 32 30 29 29 29 27 25 27 29 29 28 26 23 20 19 20 22 24 25 25 25 25 24 24 24 25 25 25 25 24 23 23 24 25 25 26 26 26 26 26 26 26 26 25 22 19 18 18 19 20 20 20 21 22 22 23 25 27 29 29 27 26 26 26 27 27 28 30 31 33 34 33 31
30 32 31 29 29 31 32 28 26 28 29 29 28 26 26 27 26 25 28 31 30 28 25 22 19 17 17 18 20 22 23 23 23 23 23 23 23 23 24 24 24 23 23 23 24 24 24 24 24 25 26 26 25 25 26 25 22 19 17 18 20 20 20 20 22 22 23 24 25 26 28 29 28 27 26 26 27 28 29 30 30 30 31 30 28
29 30 28 27 29 33 31 26 25 28 29 28 26 24 24 24 24 25 29 31 29 26 23 19 16 14 14 16 17 19 21 21 22 22 23 23 22 22 22 22 22 23 23 23 23 22 22 22 22 23 24 24 24 24 25 25 23 20 18 19 20 20 19 20 22 23 24 25 26 27 28 29 27 26 25 26 27 27 28 30 30 29 29 29 29
27 27 27 28 31 33 29 25 26 29 29 27 26 24 23 24 25 28 30 29 27 24 20 17 14 12 11 12 14 16 17 19 19 20 20 20 20 20 21 21 22 22 22 21 21 21 21 21 21 22 23 24 24 24 25 25 24 23 22 20 19 20 20 21 22 23 23 24 25 26 27 27 25 25 25 26 26 27 28 28 27 27 26 25 24
25 25 26 28 31 30 27 26 29 29 28 27 26 24 23 24 27 29 29 27 25 23 19 15 12 10 9 10 11 12 14 15 16 17 18 18 19 19 19 20 21 21 21 20 20 20 21 20 20 21 22 23 24 24 24 25 25 25 25 23 21 20 20 21 23 24 23 23 24 24 24 24 24 24 25 25 26 26 27 26 25 23 21 20 19
24 23 25 28 30 28 26 28 30 28 25 26 26 25 24 25 27 28 27 26 24 21 18 15 11 9 8 9 10 10 11 12 13 14 16 16 18 19 19 19 19 20 20 20 19 19 19 19 20 21 23 23 22 22 24 25 25 25 26 24 23 23 23 23 23 23 23 23 22 21 21 21 21 22 22 22 23 24 24 24 24 23 23 22 23
22 21 24 27 27 26 27 28 28 26 25 26 26 26 25 26 26 26 25 24 22 19 17 14 11 9 8 8 9 9 10 11 11 13 14 15 16 17 18 18 19 20 20 19 18 18 18 18 19 21 22 21 20 21 23 25 25 25 24 23 22 23 24 24 24 25 25 26 25 23 22 22 23 23 24 25 26 27 28 29 29 29 29 29 28
20 20 23 24 24 25 26 26 26 26 26 26 26 26 26 26 26 24 23 22 20 18 15 13 10 9 8 8 8 9 10 10 11 12 13 14 15 16 17 19 20 21 21 20 19 19 20 21 22 22 21 19 20 23 25 25 25 23 22 21 21 21 21 22 24 25 25 26 27 26 26 26 26 27 28 28 29 31 31 32 33 33 32 31 29
19 19 22 23 23 24 25 25 26 26 26 26 26 26 26 25 24 23 21 20 19 17 14 13 11 10 9 9 9 10 11 11 11 12 13 14 15 16 18 19 20 20 21 20 21 22 23 24 24 23 21 19 20 23 24 22 20 18 17 18 18 18 18 18 18 18 19 21 23 24 25 26 26 26 27 28 28 29 29 29 30 30 30 29 28
18 19 23 24 24 24 24 24 25 25 25 25 25 26 25 24 23 22 20 19 18 17 15 13 11 10 10 10 10 11 11 11 11 12 12 14 14 15 17 18 18 19 20 20 20 22 22 23 23 23 23 22 23 23 21 17 16 15 15 15 15 15 15 16 15 16 18 20 22 23 24 25 25 25 25 26 28 28 28 29 30 30 29 29 29
18 20 23 24 24 24 24 23 23 24 24 24 24 25 24 23 22 21 19 17 16 16 15 14 12 12 11 11 11 11 11 11 12 12 12 13 14 15 16 16 16 18 19 19 19 20 20 20 21 21 21 20 21 19 16 15 17 17 17 18 18 18 19 19 18 19 21 22 21 21 22 23 24 25 25 26 28 28 28 28 28 28 28 28 28
Wind_Direction
233 224 223 222 221 219 218 216 215 215 216 214 212 211 209 206 205 204 204 203 201 201 201 202 202 202 203 203 205 206 208 209 212 215 216 217 218 218 219 220 221 221 221 223 219 215 214 215 215 216 218 220 221 224 226 229 232 235 240 240 239 241 243 248 250 253 269 288 302 312 316 316 309 307 338 353 352 335 272 197 181 172 168 173 177
235 224 222 221 220 217 215 212 211 211 213 212 212 212 210 207 207 207 206 203 203 203 203 204 205 206 205 205 207 207 208 210 213 215 217 218 219 220 220 221 222 222 223 223 220 217 215 215 217 218 220 221 223 225 227 229 230 232 233 231 231 235 239 241 240 242 255 279 312 332 336 348 92 110 85 63 51 58 113 143 151 154 157 158 156
230 224 220 217 217 214 211 211 210 211 211 211 212 211 209 208 208 208 207 206 206 207 207 208 209 210 210 210 210 209 211 214 217 219 219 219 219 220 221 222 222 222 224 224 222 220 219 219 219 220 222 223 222 223 225 226 227 229 229 229 230 233 235 233 231 232 223 204 33 343 339 54 83 97 106 87 75 90 117 127 133 138 143 146 150
226 224 218 213 213 211 210 210 210 210 210 210 210 209 208 208 208 207 207 208 208 209 210 211 211 211 211 213 213 212 214 216 217 218 219 219 219 220 221 221 221 222 224 225 224 223 222 222 222 222 223 223 223 224 226 226 226 227 227 228 228 227 228 226 226 230 224 214 170 104 66 67 283 297 105 102 91 102 113 120 125 128 132 140 150
224 223 218 210 211 211 211 211 210 209 209 210 209 208 208 209 209 208 208 209 210 210 211 210 209 207 207 209 210 211 213 212 211 214 216 217 218 219 220 220 220 222 224 225 225 225 224 225 224 224 224 223 224 227 230 230 228 228 227 227 228 227 225 222 221 226 228 224 205 174 105 76 225 250 79 137 155 136 125 123 125 122 122 128 134
225 224 218 210 212 213 213 213 210 211 213 213 212 210 210 210 210 209 210 210 211 211 210 208 207 205 202 201 201 203 207 209 210 213 213 214 217 219 220 220 220 223 224 226 226 226 226 226 226 225 225 224 226 230 232 231 228 227 227 227 228 229 227 220 216 215 219 222 218 214 223 225 198 156 114 121 179 171 166 157 146 133 113 97 108
227 226 217 210 211 210 212 213 211 214 216 215 214 213 213 213 212 212 212 212 212 211 209 208 206 205 204 204 204 204 206 211 214 215 215 216 218 219 220 220 221 223 225 226 226 226 226 227 226 225 225 226 229 232 231 229 228 226 226 227 228 228 226 222 218 213 208 210 215 220 224 224 210 192 182 166 312 227 194 175 167 199 236 5 106
222 223 217 212 210 208 211 212 212 215 217 214 213 214 215 215 215 214 213 213 213 211 209 208 207 207 207 207 209 209 211 215 216 216 217 218 217 218 220 221 222 224 225 226 225 225 226 226 226 225 225 227 229 232 231 229 228 226 226 227 228 228 227 226 223 217 211 207 205 209 216 219 217 217 217 206 182 213 217 202 214 250 271 276 260
224 223 218 215 211 211 213 214 215 216 216 213 213 215 215 215 215 215 214 213 213 212 210 210 209 209 209 209 211 213 216 218 218 216 216 217 217 219 220 221 223 225 225 225 224 224 225 225 225 224 225 227 229 230 229 228 228 227 226 226 226 227 227 229 228 223 220 215 207 203 204 205 209 215 220 218 207 206 232 229 213 230 272 265 248
231 228 224 220 216 217 217 217 218 218 216 215 215 215 215 214 214 214 215 214 213 213 211 211 211 210 210 210 212 214 216 217 217 217 216 216 217 219 221 222 223 224 224 223 223 223 224 224 224 224 225 227 228 228 226 226 227 227 228 228 228 228 227 228 229 229 227 223 217 210 200 192 191 196 203 207 208 214 234 239 223 227 252 256 260
240 239 238 232 226 224 221 220 222 220 218 216 216 216 215 214 213 214 215 214 213 213 212 212 211 211 212 212 214 215 215 215 214 215 215 215 216 218 221 222 223 223 222 221 221 222 223 223 224 224 226 227 227 226 225 225 226 227 228 228 228 230 230 228 228 229 228 225 222 218 212 207 206 208 208 205 204 206 218 240 238 235 248 258 265
259 252 247 240 230 222 215 217 220 218 216 215 216 215 215 214 214 214 215 214 214 213 213 213 212 212 214 215 216 217 216 215 215 215 215 215 216 218 219 220 221 221 220 219 220 220 221 222 222 223 225 227 226 225 226 227 228 228 227 227 228 230 230 229 226 225 223 220 219 219 222 224 224 227 228 220 215 213 214 228 236 232 243 254 262
294 277 262 245 227 215 211 215 215 212 213 214 215 214 214 214 213 213 215 215 214 214 214 214 214 214 215 216 218 218 218 218 218 218 217 217 217 217 217 217 217 217 217 218 219 219 220 220 220 222 224 225 225 225 227 228 228 227 225 225 227 229 230 228 225 224 222 220 220 221 223 227 230 236 236 227 221 219 216 221 234 242 247 257 274
313 299 287 270 252 239 226 219 214 213 215 215 214 214 214 214 213 214 217 216 215 214 215 215 215 217 217 218 218 218 218 219 220 220 220 219 218 217 217 216 215 215 216 218 219 218 219 219 220 222 223 224 224 226 227 227 227 226 225 224 226 228 228 226 224 223 222 222 223 223 225 229 233 236 233 227 221 217 214 214 220 240 261 269 281
330 317 307 300 297 289 263 243 229 223 222 219 217 216 215 215 215 216 217 217 216 215 216 216 217 218 218 219 219 219 219 220 221 222 221 221 220 219 218 217 216 216 217 217 218 218 218 219 220 222 222 223 224 225 226 226 225 224 223 223 225 226 224 221 220 220 220 221 222 224 226 229 232 231 229 227 225 224 224 223 215 209 256 284 281
347 339 329 323 325 323 304 282 264 248 237 228 223 220 218 219 219 219 220 219 218 217 217 218 219 219 219 219 219 219 220 220 221 222 222 222 222 220 219 218 217 217 217 217 218 219 219 219 219 220 221 223 225 225 225 225 223 222 221 221 222 222 220 217 217 217 218 220 221 223 225 227 229 228 225 225 226 228 230 228 218 205 205 242 289
357 354 348 341 341 343 338 323 303 282 263 247 237 229 225 225 224 224 225 223 221 221 221 221 220 220 220 220 220 220 220 220 221 222 222 222 222 221 220 219 218 218 219 219 220 220 219 218 217 219 221 224 224 225 226 225 223 221 220 221 221 219 217 216 215 216 217 219 221 224 227 229 227 225 223 223 224 225 223 221 219 213 207 200 202
4 7 6 2 359 356 350 342 332 316 294 274 259 247 238 235 232 231 231 228 226 225 224 224 222 222 222 221 221 221 221 222 222 222 222 221 221 221 220 220 219 219 220 220 219 217 216 215 217 220 222 223 224 225 226 225 223 221 221 221 221 218 215 214 215 216 217 219 221 224 227 228 227 224 224 224 224 224 220 219 224 225 221 213 205
6 8 9 9 9 4 358 351 344 336 323 306 289 271 254 245 240 238 238 236 233 231 229 227 226 225 225 224 223 223 222 223 222 222 221 221 221 220 220 220 220 220 220 219 216 214 214 216 218 221 222 224 225 226 225 223 221 219 218 217 216 215 213 212 213 215 218 219 220 222 223 224 224 223 222 224 225 225 227 229 231 230 228 226 219
3 4 4 6 9 9 9 4 356 349 338 324 310 294 277 263 252 247 245 243 240 237 234 232 229 228 228 227 226 225 224 223 223 222 221 221 221 220 220 220 220 220 219 217 216 216 216 217 218 220 222 224 225 225 223 220 218 217 216 214 213 212 212 213 213 214 216 218 219 220 221 221 220 219 220 222 224 226 232 234 235 232 228 229 225
0 2 1 2 6 8 10 9 7 4 356 343 328 312 300 287 274 262 254 249 245 241 238 236 233 230 229 229 229 227 225 224 223 222 222 221 221 220 220 220 220 219 217 216 217 217 217 218 219 221 222 223 224 222 220 217 215 214 214 213 212 211 212 213 213 213 214 217 219 220 220 221 220 219 219 221 223 227 232 232 232 231 227 227 226
359 360 360 1 5 6 5 5 7 7 4 358 349 335 322 308 294 281 269 260 253 247 243 239 236 233 231 231 230 228 226 225 223 222 222 221 220 220 219 219 218 217 217 216 216 216 217 219 221 222 223 223 223 221 217 214 213 212 211 211 211 211 211 211 211 213 214 216 218 219 219 220 219 220 220 222 225 226 228 228 227 227 227 228 229
358 359 359 360 3 3 2 3 4 3 2 1 357 349 337 321 307 293 280 270 262 256 249 244 239 236 233 231 230 228 226 224 222 221 220 220 219 218 217 216 216 215 215 215 215 216 218 220 221 222 222 222 221 218 216 213 212 212 210 210 211 211 211 211 212 214 215 215 216 217 218 218 217 218 219 222 226 227 227 227 227 228 229 231 233
357 358 357 358 360 2 2 1 0 359 358 357 356 352 345 333 318 302 288 278 269 261 254 247 241 238 234 231 229 227 225 222 220 219 218 217 216 215 214 213 213 213 212 213 215 217 219 220 220 221 221 219 218 216 214 213 212 212 212 211 212 212 213 215 217 217 217 217 216 216 217 217 216 216 219 223 225 226 226 227 229 230 231 235 237
354 355 354 355 358 360 359 356 356 356 355 353 352 350 347 341 329 314 299 287 276 265 257 250 243 238 234 231 229 226 224 221 219 218 217 215 213 212 211 211 210 211 211 213 214 216 218 219 220 220 219 217 216 214 212 211 211 212 213 214 214 214 216 218 220 221 220 219 217 217 217 217 216 217 220 223 224 225 227 228 230 233 234 238 240
352 352 352 353 356 356 354 352 351 353 352 350 348 346 345 342 337 327 312 296 284 272 261 253 245 239 235 232 229 226 224 222 220 218 216 214 212 211 210 209 210 211 211 213 214 216 217 218 219 218 217 216 214 213 212 211 211 211 213 215 216 218 219 221 222 223 222 220 219 218 218 218 218 220 222 224 226 226 228 230 232 235 238 240 241
349 349 349 351 355 353 350 347 347 348 348 347 345 343 341 340 338 335 324 308 293 278 265 256 248 242 237 234 231 229 226 223 219 218 215 213 212 211 210 210 210 211 212 213 214 215 216 217 217 216 216 216 214 213 212 212 213 213 215 216 218 220 221 222 223 223 222 221 220 220 220 221 222 224 226 228 229 229 231 233 236 238 240 240 241
345 347 352 354 352 347 345 344 345 345 344 342 341 340 338 336 335 334 331 319 302 285 270 260 251 244 240 237 234 231 227 223 220 218 215 213 211 210 210 211 211 212 213 214 214 214 214 214 215 216 216 216 215 214 214 214 215 216 218 219 220 220 221 220 221 221 220 220 220 221 223 225 226 228 231 232 234 235 235 237 239 241 241 241 242
341 346 354 354 349 343 341 340 341 342 340 339 338 336 335 333 330 330 330 325 313 292 274 264 254 248 245 241 237 233 228 224 221 218 215 213 211 211 210 211 213 213 213 214 214 214 213 212 213 215 216 216 216 217 217 217 217 218 219 220 220 219 219 218 217 218 219 220 222 223 224 227 229 232 235 237 240 241 242 243 244 244 243 243 244
339 346 352 349 343 340 338 337 337 338 338 337 334 332 331 329 327 326 325 325 318 299 279 268 259 254 250 245 239 233 228 224 220 218 215 213 211 210 211 211 212 213 213 212 212 213 214 214 214 215 216 218 219 220 220 221 221 221 220 218 218 217 217 217 217 217 218 220 222 224 227 229 232 234 237 240 242 245 247 249 250 250 248 246 244
337 344 347 342 337 336 335 333 333 335 335 332 329 327 326 324 323 322 320 320 318 305 285 269 262 258 252 245 238 232 227 223 220 217 215 213 211 210 210 210 210 210 210 211 212 213 214 215 216 217 219 220 221 221 221 221 221 221 220 218 216 216 217 218 220 220 220 222 224 226 229 231 233 236 239 242 244 246 249 250 251 252 251 250 247
338 340 340 335 332 333 330 327 330 332 331 328 326 324 322 321 320 319 316 315 313 307 291 274 266 259 250 242 236 230 225 221 218 216 214 212 210 209 208 207 207 207 208 210 212 213 214 216 217 218 219 220 221 220 219 217 215 217 220 220 218 218 219 221 223 224 225 226 227 229 231 232 235 238 241 244 246 248 249 250 250 251 251 252 252
332 329 329 329 330 328 324 323 327 328 325 325 325 322 318 318 318 316 315 311 309 308 298 283 270 260 249 241 234 227 223 220 217 215 213 210 208 207 206 206 206 207 208 210 211 213 215 216 217 217 218 219 220 219 216 214 214 214 218 221 222 222 224 225 226 228 229 230 231 232 233 234 236 239 241 244 246 248 249 249 249 250 250 251 251
321 322 327 330 328 324 322 323 324 323 324 325 323 320 316 315 315 315 313 309 306 306 302 291 277 263 251 241 232 226 222 219 216 213 210 208 206 206 205 205 205 206 207 209 211 213 215 216 217 218 219 220 221 220 217 215 216 216 215 219 222 224 227 230 231 233 233 234 234 235 235 236 238 240 242 244 245 247 248 248 248 247 248 249 250
319 328 331 330 328 326 324 323 322 324 327 325 322 320 317 315 314 313 311 307 304 303 301 295 282 267 253 240 231 225 221 218 214 210 208 207 206 205 204 204 205 206 209 210 211 213 215 217 219 221 222 224 223 222 219 215 216 216 216 219 223 223 226 230 234 236 239 241 241 241 242 242 243 244 244 245 247 248 249 249 249 249 249 250 250
326 328 328 328 329 327 321 319 321 325 326 323 321 320 318 315 314 313 310 307 304 301 299 294 283 269 255 240 231 224 219 215 211 207 206 205 204 204 203 203 204 206 209 211 211 214 217 220 222 223 224 225 224 222 219 215 216 218 219 224 229 226 225 227 232 236 240 244 246 247 247 247 247 249 250 250 251 252 253 253 252 252 253 253 253
327 324 324 327 328 324 317 316 321 324 323 322 320 319 317 314 313 312 311 308 304 301 298 292 283 271 258 243 232 224 217 213 208 205 205 204 203 203 202 203 203 204 206 210 212 216 220 223 225 224 222 222 222 221 218 215 217 222 224 229 235 235 230 229 232 237 242 245 247 248 249 250 250 251 252 252 250 250 252 253 253 253 254 255 257
323 321 322 325 325 321 316 317 322 322 322 323 321 319 317 312 310 312 312 309 306 303 300 294 285 275 263 246 233 223 216 211 207 205 204 203 202 202 202 203 204 205 207 211 215 218 222 224 225 224 222 222 222 222 221 220 222 226 229 232 237 238 237 234 234 237 241 244 245 245 246 248 249 250 252 250 247 246 247 248 249 251 252 252 254
317 316 318 322 322 318 315 316 319 320 322 324 322 321 319 315 314 316 314 310 308 307 304 299 291 281 266 247 233 223 216 211 208 206 204 203 201 202 202 204 206 208 210 214 216 218 220 222 224 223 223 223 225 226 228 228 227 228 230 233 236 236 235 236 235 236 239 242 243 243 243 244 247 250 250 249 247 246 246 246 247 249 250 250 254
313 312 316 320 320 318 314 313 316 319 322 324 323 322 320 318 318 318 315 314 314 312 309 303 295 283 264 245 231 222 215 211 209 206 204 202 201 201 202 205 207 210 212 215 216 218 219 220 222 223 224 227 228 231 233 234 232 229 229 232 234 233 232 232 234 235 237 240 242 243 245 244 245 247 248 248 248 247 247 248 247 247 248 251 255
311 313 316 318 318 317 313 309 312 320 323 323 323 322 320 321 321 320 319 320 319 316 311 304 293 278 258 239 227 219 214 211 209 206 203 202 202 203 204 205 207 209 211 212 215 217 219 221 224 225 227 229 231 234 238 239 235 230 230 232 234 234 233 234 236 237 237 239 241 243 246 247 246 247 248 249 250 250 250 250 249 247 250 254 255
312 313 314 315 316 317 313 308 313 321 323 323 322 319 318 320 320 320 322 324 322 318 312 303 289 272 251 234 223 217 212 210 208 205 202 201 203 205 206 207 207 208 209 211 214 216 218 221 224 227 229 231 234 238 242 243 239 234 233 234 235 236 236 236 238 239 239 240 243 245 248 250 250 249 250 251 252 252 252 253 253 253 255 257 257
312 311 313 316 318 317 313 310 317 324 325 324 323 318 319 321 319 320 324 326 323 318 312 301 286 268 247 232 222 214 210 207 206 204 202 201 201 203 206 207 207 208 208 209 212 215 217 219 222 225 229 233 237 240 242 244 243 238 236 238 239 240 238 237 238 239 240 243 245 247 250 253 253 251 251 251 251 251 251 253 254 256 257 259 260
310 310 313 319 319 316 313 314 321 325 324 324 323 319 319 320 320 323 327 327 323 318 309 298 284 265 245 231 219 212 209 206 204 203 201 200 201 202 204 206 207 207 207 207 210 213 214 216 220 226 231 235 239 242 244 247 249 246 242 242 244 244 242 241 241 242 243 244 245 247 249 250 249 249 250 251 251 250 251 252 253 254 255 256 256
307 307 312 319 319 315 313 316 321 322 321 321 322 320 317 318 322 326 328 327 324 317 307 298 285 268 249 233 219 212 209 207 206 205 202 202 202 202 202 205 206 206 206 207 209 212 214 217 221 227 234 238 241 245 248 250 252 252 249 247 248 248 248 247 248 248 249 249 248 248 249 249 248 249 250 250 250 249 249 249 250 250 251 252 254
304 306 313 319 318 313 312 314 317 318 318 319 320 319 316 317 322 327 328 327 324 316 307 300 288 273 255 237 224 216 211 210 211 211 211 212 211 208 206 205 205 206 208 210 211 212 215 218 223 230 237 242 245 248 252 254 254 253 253 252 252 251 250 249 249 248 248 248 247 245 244 244 246 246 246 247 249 250 250 251 252 254 258 263 266
300 305 313 318 317 313 312 312 313 315 318 319 318 317 317 319 324 328 328 327 323 315 307 300 291 276 261 243 230 223 218 218 218 216 217 219 218 215 212 208 208 209 209 211 214 214 214 218 226 233 239 243 247 250 254 256 256 256 258 259 257 254 249 246 244 242 240 241 243 243 244 245 246 247 248 251 255 256 257 259 261 263 266 269 272
299 305 312 316 313 310 309 309 310 313 316 317 317 316 317 322 327 330 330 326 320 314 305 298 289 277 265 252 241 237 233 229 227 226 224 223 223 222 219 219 220 219 216 215 216 216 220 224 229 234 239 244 249 252 255 259 262 264 265 264 260 255 248 243 242 242 241 242 243 246 248 249 249 250 251 253 255 256 257 259 260 262 265 267 268
298 306 312 313 309 306 306 306 307 310 313 315 315 316 318 324 329 333 331 325 318 312 304 295 287 278 268 258 249 245 242 239 239 237 234 233 233 232 231 232 234 233 231 231 229 229 233 236 236 239 241 242 247 255 262 267 270 269 265 260 255 250 247 244 243 244 245 245 244 244 244 245 245 246 247 249 250 252 253 254 255 256 258 260 262
302 309 313 312 308 304 305 305 306 308 311 312 313 316 319 325 330 333 331 325 317 310 303 295 287 279 271 263 256 251 248 246 245 242 240 239 238 239 240 242 243 244 244 244 243 245 248 248 247 249 250 250 256 264 271 272 266 258 255 254 254 255 254 253 252 249 246 242 241 241 241 240 240 241 241 243 246 248 249 250 252 254 255 257 259
309 313 314 313 309 306 306 306 306 307 308 310 313 317 321 325 328 331 329 324 316 307 298 292 288 281 275 270 264 258 254 251 248 246 244 243 242 243 244 243 245 251 254 251 246 246 249 250 252 257 258 259 262 265 264 258 252 248 249 252 256 258 258 258 257 253 245 238 235 235 236 238 240 240 240 242 245 247 248 250 252 254 255 256 257